Powrót do katalogu

STARLINK-31594

AktywnyŁącznośćVLEO
NORAD 59332·PAYLOAD·🇺🇸 United States

Wystrzelony Mar 25, 2024 z Cape Canaveral Space Force Station

Loading…

Następne Przeloty (najbliższe 24 godziny)

TLE

ŚwieżeSource: CelesTrak SupGP

Epoka: Sep 15, 2026, 01:42 UTC

1 59332C 24057N   26258.07131944 -.00042879  00000+0 -15531-2 0  2588
2 59332  42.9996 208.8447 0000916 261.1349  36.9326 15.27598871    11

Śledź STARLINK-31594 w czasie rzeczywistym z AllMySat

Download on the App Store